Highgate, VT

6:51 PM EDT on June 27, 2017 (GMT -0400)
Franklin County State

Weather History for KFSO - November, 2012

Change the Weather History Date:

Saturday, November 3, 2012

  Actual Average (KPBG) Record (KPBG)
Temperature  
Mean Temperature 38 °F -  
Max Temperature 39 °F 54 °F 74 °F (1990)
Min Temperature 36 °F 38 °F 21 °F (1988)
Degree Days  
Heating Degree Days 28    
Moisture  
Dew Point 33 °F    
Average Humidity 85    
Maximum Humidity 92    
Minimum Humidity 75    
Precipitation  
Precipitation 0.00 in - - ()
Sea Level Pressure  
Sea Level Pressure 29.77 in    
Wind  
Wind Speed 6 mph (West)    
Max Wind Speed 10 mph    
Max Gust Speed 21 mph    
Visibility 9 miles    
Events Rain    
Averages and records for this station are not official NWS values.
T = Trace of Precipitation, MM = Missing Value Source: NWS Daily Summary

Daily Weather History Graph

Daily Weather History Graph

Search for Another Location

Airport or City:

Trip Planner

Search our weather history database for the weather conditions in past years. The results will help you decide how hot, cold, wet, or windy it might be!

Date:

Astronomy

Nov. 03, 2012 Rise Set
Actual Time 7:34 AM EDT 5:37 PM EDT
Civil Twilight 7:03 AM EDT 6:07 PM EDT
Nautical Twilight 6:28 AM EDT 6:42 PM EDT
Astronomical Twilight 5:54 AM EDT 7:16 PM EDT
Moon 9:11 PM EDT (11/3) 11:41 AM EDT (11/3)
Length of Visible Light 11h 04m
Length of Day
10h 03m
Waning Gibbous, 80% of the Moon is Illuminated
Nov 3
Waning Gibbous
Nov 6
Last Quarter
Nov 13
New
Nov 20
First Quarter
Nov 28
Full

Hourly Weather History & Observations

Time (EDT) Temp. Windchill Dew Point Humidity Pressure Visibility Wind Dir Wind Speed Gust Speed Precip Events Conditions
12:15 AM 38.7 °F 36.3 °F 35.6 °F 89% 29.66 in 10.0 mi West 3.5 mph - N/A Rain Light Rain
12:35 AM 38.7 °F 36.3 °F 35.2 °F 87% 29.66 in 10.0 mi West 3.5 mph - N/A   Light Drizzle
12:55 AM 38.3 °F 34.8 °F 34.9 °F 87% 29.66 in 10.0 mi West 4.6 mph - N/A   Overcast
1:15 AM 38.3 °F 33.9 °F 34.7 °F 87% 29.66 in 10.0 mi WNW 5.8 mph - N/A   Light Drizzle
1:35 AM 38.3 °F 35.9 °F 34.7 °F 87% 29.66 in 10.0 mi West 3.5 mph - N/A   Overcast
1:55 AM 38.3 °F 34.8 °F 34.7 °F 87% 29.67 in 10.0 mi West 4.6 mph - N/A Rain Light Rain
2:15 AM 38.3 °F 32.5 °F 34.3 °F 86% 29.67 in 10.0 mi West 8.1 mph - N/A   Overcast
2:35 AM 38.3 °F 35.9 °F 34.2 °F 85% 29.67 in 10.0 mi West 3.5 mph - N/A   Overcast
2:55 AM 38.3 °F 32.5 °F 34.2 °F 85% 29.68 in 10.0 mi WNW 8.1 mph - N/A   Overcast
3:15 AM 37.8 °F 31.8 °F 33.8 °F 86% 29.68 in 10.0 mi WNW 8.1 mph 17.3 mph N/A   Light Drizzle
3:35 AM 36.9 °F 29.6 °F 33.3 °F 87% 29.69 in 10.0 mi West 10.4 mph 16.1 mph N/A   Light Drizzle
3:55 AM 36.9 °F 31.4 °F 33.1 °F 86% 29.69 in 10.0 mi WNW 6.9 mph 19.6 mph N/A   Overcast
4:15 AM 36.9 °F 33.1 °F 33.3 °F 87% 29.69 in 10.0 mi West 4.6 mph - N/A   Overcast
4:35 AM 36.9 °F 32.2 °F 33.6 °F 88% 29.69 in 10.0 mi West 5.8 mph - N/A   Overcast
4:55 AM 36.9 °F 31.4 °F 33.8 °F 89% 29.70 in 10.0 mi West 6.9 mph - N/A   Overcast
5:15 AM 36.9 °F 30.7 °F 33.8 °F 89% 29.70 in 10.0 mi WNW 8.1 mph - N/A   Overcast
5:35 AM 36.9 °F 31.4 °F 33.8 °F 89% 29.70 in 10.0 mi WNW 6.9 mph - N/A   Overcast
5:55 AM 36.9 °F 31.4 °F 33.4 °F 87% 29.71 in 10.0 mi West 6.9 mph - N/A   Overcast
6:15 AM 36.9 °F 31.4 °F 33.3 °F 87% 29.71 in 10.0 mi West 6.9 mph - N/A   Overcast
6:35 AM 36.9 °F 32.2 °F 33.1 °F 86% 29.72 in 10.0 mi West 5.8 mph - N/A   Overcast
6:55 AM 36.9 °F 33.1 °F 32.9 °F 86% 29.73 in 10.0 mi WNW 4.6 mph - N/A   Overcast
7:15 AM 36.9 °F 31.4 °F 32.9 °F 86% 29.73 in 10.0 mi West 6.9 mph - N/A   Overcast
7:35 AM 36.9 °F 30.1 °F 32.5 °F 84% 29.74 in 10.0 mi West 9.2 mph - N/A   Overcast
7:55 AM 36.9 °F 31.4 °F 32.5 °F 84% 29.74 in 10.0 mi West 6.9 mph - N/A   Overcast
8:15 AM 36.9 °F 32.2 °F 32.5 °F 84% 29.75 in 10.0 mi West 5.8 mph - N/A   Overcast
8:35 AM 36.9 °F 32.2 °F 32.4 °F 84% 29.76 in 10.0 mi West 5.8 mph - N/A   Overcast
8:55 AM 36.9 °F 33.1 °F 32.0 °F 83% 29.77 in 10.0 mi West 4.6 mph - N/A   Overcast
9:15 AM 36.9 °F 31.4 °F 32.0 °F 83% 29.77 in 10.0 mi West 6.9 mph - N/A   Overcast
9:35 AM 36.9 °F 30.1 °F 31.6 °F 81% 29.77 in 10.0 mi West 9.2 mph - N/A   Overcast
10:15 AM 37.0 °F 32.4 °F 31.6 °F 81% 29.78 in 10.0 mi West 5.8 mph - N/A   Overcast
10:35 AM 37.6 °F 34.0 °F 32.0 °F 80% 29.78 in 10.0 mi West 4.6 mph - N/A   Overcast
10:55 AM 38.3 °F 31.4 °F 31.6 °F 77% 29.78 in 10.0 mi West 10.4 mph - N/A   Overcast
11:15 AM 38.3 °F 34.8 °F 31.6 °F 77% 29.79 in 10.0 mi West 4.6 mph - N/A   Overcast
11:35 AM 38.3 °F 32.5 °F 31.3 °F 76% 29.79 in 10.0 mi WNW 8.1 mph - N/A   Overcast
11:55 AM 39.2 °F 33.6 °F 32.0 °F 75% 29.79 in 10.0 mi West 8.1 mph - N/A   Overcast
12:15 PM 38.3 °F 34.8 °F 31.3 °F 76% 29.79 in 10.0 mi West 4.6 mph 16.1 mph N/A   Overcast
12:35 PM 38.5 °F 32.7 °F 31.8 °F 77% 29.79 in 10.0 mi West 8.1 mph - N/A   Overcast
12:55 PM 39.2 °F 35.0 °F 32.0 °F 75% 29.79 in 10.0 mi WNW 5.8 mph 16.1 mph N/A   Light Drizzle
1:15 PM 39.4 °F 35.2 °F 32.4 °F 76% 29.79 in 10.0 mi WNW 5.8 mph - N/A   Light Drizzle
1:35 PM 38.3 °F 33.2 °F 32.2 °F 79% 29.79 in 7.0 mi West 6.9 mph 18.4 mph N/A   Drizzle
1:55 PM 38.3 °F 33.9 °F 32.2 °F 79% 29.79 in 10.0 mi WNW 5.8 mph - N/A   Light Drizzle
2:15 PM 38.3 °F 33.2 °F 32.4 °F 79% 29.79 in 10.0 mi WNW 6.9 mph - N/A Rain Light Rain
2:35 PM 38.3 °F 33.2 °F 32.7 °F 80% 29.79 in 10.0 mi West 6.9 mph - N/A   Drizzle
2:55 PM 38.3 °F 32.5 °F 32.4 °F 79% 29.79 in 10.0 mi West 8.1 mph - N/A   Drizzle
3:15 PM 38.7 °F 32.4 °F 32.7 °F 79% 29.80 in 10.0 mi West 9.2 mph - N/A   Light Drizzle
3:35 PM 38.3 °F 33.2 °F 32.4 °F 79% 29.80 in 10.0 mi West 6.9 mph - N/A   Light Drizzle
3:55 PM 38.7 °F 33.6 °F 32.7 °F 79% 29.80 in 10.0 mi West 6.9 mph - N/A   Light Drizzle
4:15 PM 38.3 °F 33.9 °F 32.4 °F 79% 29.81 in 10.0 mi WNW 5.8 mph 18.4 mph N/A   Drizzle
4:35 PM 38.3 °F 33.9 °F 32.9 °F 81% 29.81 in 10.0 mi West 5.8 mph - N/A   Drizzle
4:55 PM 38.3 °F 34.8 °F 33.6 °F 83% 29.82 in 7.0 mi West 4.6 mph - N/A   Drizzle
5:15 PM 38.1 °F 32.9 °F 34.2 °F 86% 29.82 in 7.0 mi West 6.9 mph - N/A   Drizzle
5:35 PM 37.9 °F 34.4 °F 34.0 °F 86% 29.82 in 10.0 mi West 4.6 mph - N/A   Drizzle
5:55 PM 37.8 °F 32.5 °F 33.4 °F 84% 29.83 in 10.0 mi West 6.9 mph - N/A   Light Drizzle
6:15 PM 37.8 °F 31.8 °F 33.6 °F 85% 29.83 in 10.0 mi West 8.1 mph - N/A   Light Drizzle
6:35 PM 37.4 °F 30.8 °F 33.3 °F 85% 29.84 in 10.0 mi West 9.2 mph 20.7 mph N/A   Drizzle
7:15 PM 36.9 °F 30.7 °F 33.8 °F 89% 29.84 in 4.0 mi West 8.1 mph 16.1 mph N/A   Overcast
7:35 PM 36.9 °F 31.4 °F 34.3 °F 91% 29.85 in 5.0 mi West 6.9 mph 16.1 mph N/A   Overcast
7:55 PM 36.9 °F 31.4 °F 34.3 °F 91% 29.85 in 10.0 mi West 6.9 mph 19.6 mph N/A   Overcast
8:15 PM 36.9 °F 32.2 °F 34.3 °F 91% 29.85 in 7.0 mi West 5.8 mph - N/A   Overcast
8:35 PM 36.9 °F 31.4 °F 34.7 °F 92% 29.86 in 10.0 mi West 6.9 mph - N/A   Overcast
8:55 PM 36.9 °F 30.1 °F 34.7 °F 92% 29.86 in 10.0 mi WNW 9.2 mph - N/A   Overcast
9:15 PM 36.9 °F 32.2 °F 34.7 °F 92% 29.86 in 7.0 mi WNW 5.8 mph - N/A   Overcast
9:35 PM 36.9 °F 31.4 °F 34.7 °F 92% 29.87 in 7.0 mi West 6.9 mph - N/A   Overcast
9:55 PM 36.9 °F - 34.5 °F 91% 29.87 in 7.0 mi Calm Calm - N/A   Overcast
10:15 PM 36.9 °F 31.4 °F 34.7 °F 92% 29.87 in 7.0 mi WNW 6.9 mph - N/A   Overcast
10:35 PM 36.9 °F 31.4 °F 34.7 °F 92% 29.87 in 7.0 mi WNW 6.9 mph - N/A   Overcast
10:55 PM 36.9 °F 33.1 °F 34.7 °F 92% 29.88 in 7.0 mi WNW 4.6 mph - N/A   Overcast
11:15 PM 36.9 °F 32.2 °F 34.7 °F 92% 29.88 in 7.0 mi West 5.8 mph - N/A   Overcast
11:35 PM 36.9 °F 31.4 °F 34.3 °F 91% 29.88 in 10.0 mi WNW 6.9 mph - N/A   Overcast
11:55 PM 36.9 °F 32.2 °F 33.8 °F 89% 29.88 in 10.0 mi West 5.8 mph - N/A   Overcast